Temp
-10 -10 -10 -10 -10 -10 -9 -9 -9 -9 -9 -9 -9 -8 -8 -8 -8 -8 -8 -8 -8 -8 -8 -7 -7 -7 -7 -7 -7 -7 -7 -7 -7 -7 -8 -7 -7 -8 -7 -7 -8 -7 -7
-10 -10 -10 -9 -9 -10 -10 -10 -9 -9 -9 -9 -9 -9 -8 -8 -8 -8 -8 -8 -8 -8 -8 -8 -7 -7 -7 -7 -7 -7 -7 -7 -7 -8 -8 -8 -7 -7 -8 -8 -8 -8 -8
-10 -10 -10 -10 -10 -10 -10 -10 -10 -9 -9 -9 -9 -8 -9 -8 -8 -8 -8 -8 -8 -8 -8 -8 -8 -7 -7 -7 -7 -7 -7 -7 -7 -7 -7 -8 -8 -8 -8 -8 -8 -8 -8
-10 -10 -10 -9 -9 -9 -10 -10 -10 -9 -9 -9 -9 -8 -9 -9 -9 -8 -8 -8 -8 -8 -8 -8 -8 -8 -7 -7 -7 -7 -7 -7 -7 -7 -8 -8 -8 -8 -8 -8 -8 -8 -8
-10 -10 -10 -9 -9 -10 -10 -10 -10 -9 -9 -9 -9 -9 -9 -9 -9 -9 -8 -8 -8 -8 -8 -8 -8 -8 -8 -8 -7 -7 -7 -7 -7 -7 -7 -7 -8 -8 -8 -8 -8 -8 -8
-9 -9 -9 -9 -9 -9 -9 -9 -9 -9 -9 -9 -9 -9 -9 -9 -9 -8 -9 -8 -8 -8 -8 -8 -8 -8 -8 -7 -7 -7 -7 -7 -7 -7 -7 -7 -8 -8 -7 -8 -8 -8 -8
-9 -9 -9 -9 -9 -9 -9 -8 -8 -8 -8 -8 -8 -9 -8 -9 -9 -9 -9 -9 -9 -8 -8 -8 -8 -7 -7 -7 -7 -7 -7 -7 -7 -7 -7 -7 -7 -7 -7 -7 -7 -8 -8
-9 -10 -9 -9 -9 -9 -9 -9 -9 -8 -8 -8 -8 -8 -8 -8 -9 -9 -9 -9 -9 -9 -8 -8 -7 -7 -7 -7 -7 -7 -7 -7 -7 -7 -7 -7 -7 -7 -7 -7 -7 -7 -7
-9 -9 -9 -9 -9 -9 -9 -9 -9 -9 -9 -8 -8 -8 -8 -8 -9 -9 -9 -9 -8 -9 -9 -8 -8 -8 -7 -7 -7 -7 -7 -7 -7 -7 -7 -7 -7 -7 -7 -7 -7 -7 -7
-9 -9 -9 -9 -9 -9 -9 -9 -9 -9 -9 -9 -8 -9 -8 -8 -8 -8 -8 -9 -8 -8 -8 -8 -8 -8 -8 -7 -7 -7 -7 -7 -7 -7 -7 -7 -7 -7 -7 -7 -7 -7 -7
-8 -8 -9 -9 -9 -9 -9 -9 -9 -9 -9 -9 -9 -9 -9 -8 -8 -8 -8 -8 -8 -8 -8 -8 -8 -8 -7 -7 -7 -7 -7 -7 -7 -7 -7 -7 -7 -7 -7 -7 -7 -7 -7
-8 -9 -9 -9 -9 -9 -10 -10 -10 -10 -10 -9 -9 -9 -9 -9 -8 -8 -8 -8 -8 -8 -8 -8 -8 -7 -8 -7 -8 -8 -8 -7 -7 -7 -7 -7 -7 -6 -7 -7 -7 -7 -7
-9 -9 -9 -9 -9 -10 -10 -10 -10 -10 -10 -10 -10 -10 -10 -10 -9 -9 -8 -8 -8 -8 -8 -8 -8 -8 -8 -8 -8 -8 -8 -8 -7 -7 -7 -7 -7 -6 -6 -7 -7 -7 -7
-8 -8 -9 -9 -10 -11 -10 -10 -10 -10 -10 -10 -10 -10 -10 -10 -10 -10 -9 -8 -8 -8 -8 -8 -8 -8 -8 -8 -8 -8 -8 -7 -7 -7 -7 -7 -7 -6 -6 -7 -7 -7 -6
-8 -8 -9 -9 -9 -9 -10 -10 -10 -10 -10 -10 -10 -10 -10 -10 -10 -10 -9 -9 -8 -8 -8 -8 -8 -8 -8 -8 -8 -8 -7 -7 -7 -7 -7 -7 -7 -7 -6 -6 -6 -6 -6
-9 -9 -9 -9 -10 -10 -10 -11 -11 -11 -11 -11 -11 -10 -10 -10 -10 -10 -10 -9 -8 -9 -8 -8 -8 -8 -8 -8 -8 -8 -8 -8 -7 -7 -7 -7 -7 -6 -6 -6 -6 -6 -6
-9 -9 -10 -10 -11 -11 -11 -11 -11 -11 -12 -12 -12 -11 -11 -11 -10 -10 -10 -10 -9 -9 -8 -9 -8 -8 -8 -8 -8 -8 -8 -8 -8 -7 -7 -7 -7 -6 -6 -6 -6 -6 -6
-9 -10 -10 -11 -11 -11 -12 -12 -11 -12 -12 -12 -12 -11 -11 -11 -11 -10 -10 -10 -10 -9 -9 -8 -9 -8 -8 -8 -8 -7 -8 -8 -7 -7 -7 -7 -7 -7 -6 -6 -6 -6 -6
-10 -10 -11 -11 -11 -12 -12 -12 -12 -12 -13 -12 -12 -12 -12 -11 -11 -11 -10 -9 -9 -9 -9 -8 -9 -9 -8 -8 -7 -7 -8 -7 -7 -7 -7 -7 -7 -7 -7 -6 -6 -6 -6
-10 -11 -12 -12 -12 -12 -13 -13 -13 -13 -13 -13 -12 -12 -12 -12 -11 -11 -11 -10 -9 -9 -9 -8 -8 -9 -8 -8 -7 -7 -7 -8 -8 -8 -7 -7 -7 -7 -7 -7 -6 -7 -6
-11 -11 -13 -13 -13 -13 -13 -13 -14 -14 -13 -13 -13 -12 -12 -12 -12 -11 -11 -10 -10 -9 -9 -8 -8 -8 -8 -7 -7 -7 -7 -8 -8 -7 -7 -7 -7 -8 -7 -7 -7 -7 -7
-12 -13 -13 -13 -13 -14 -14 -14 -14 -14 -13 -13 -13 -12 -12 -12 -12 -11 -11 -11 -10 -10 -9 -9 -8 -8 -8 -8 -8 -7 -7 -8 -8 -8 -7 -7 -7 -7 -8 -8 -8 -8 -7
-13 -14 -14 -14 -14 -15 -15 -14 -15 -14 -14 -13 -13 -13 -12 -11 -12 -11 -11 -10 -10 -10 -9 -9 -8 -8 -8 -8 -8 -7 -7 -7 -8 -8 -7 -7 -7 -7 -8 -8 -8 -8 -8
-14 -14 -14 -15 -14 -15 -15 -15 -15 -15 -14 -14 -13 -13 -12 -11 -11 -11 -10 -10 -10 -10 -9 -9 -9 -9 -8 -8 -8 -7 -7 -7 -8 -8 -7 -7 -7 -8 -8 -8 -8 -8 -8
-14 -14 -15 -15 -15 -15 -15 -15 -15 -14 -15 -14 -14 -14 -13 -12 -11 -11 -11 -10 -10 -10 -10 -9 -9 -8 -8 -9 -8 -7 -7 -7 -7 -7 -7 -8 -8 -8 -8 -7 -8 -8 -8
-14 -15 -15 -15 -15 -16 -15 -15 -15 -15 -15 -15 -14 -14 -13 -12 -11 -11 -10 -10 -9 -9 -9 -9 -9 -8 -8 -8 -8 -7 -8 -7 -7 -7 -7 -7 -8 -7 -8 -8 -8 -8 -7
Height
5919 5919 5917 5916 5915 5915 5915 5914 5913 5913 5913 5913 5912 5912 5914 5915 5916 5917 5919 5920 5920 5921 5923 5924 5925 5925 5926 5925 5926 5927 5926 5926 5926 5926 5927 5927 5926 5924 5924 5924 5924 5924 5925
5916 5916 5914 5912 5911 5912 5910 5910 5910 5910 5909 5909 5909 5909 5909 5911 5912 5913 5914 5915 5917 5917 5919 5921 5922 5923 5924 5924 5925 5926 5927 5926 5926 5927 5927 5927 5926 5926 5925 5925 5925 5925 5925
5914 5912 5910 5909 5907 5906 5906 5905 5905 5905 5905 5905 5906 5906 5906 5906 5908 5910 5910 5910 5912 5913 5914 5916 5918 5920 5922 5923 5923 5924 5925 5926 5926 5926 5926 5926 5926 5926 5926 5926 5925 5925 5925
5907 5905 5905 5905 5903 5901 5900 5899 5899 5899 5900 5900 5900 5901 5902 5902 5902 5903 5905 5906 5907 5908 5910 5911 5913 5915 5917 5919 5921 5922 5923 5924 5925 5925 5925 5925 5925 5925 5926 5926 5926 5926 5926
5903 5901 5900 5898 5898 5896 5895 5893 5893 5893 5893 5893 5893 5895 5896 5897 5897 5897 5899 5900 5901 5903 5905 5906 5908 5910 5912 5915 5917 5919 5920 5921 5922 5923 5923 5924 5924 5925 5925 5925 5925 5926 5926
5899 5897 5895 5893 5891 5890 5889 5887 5887 5886 5887 5886 5886 5887 5889 5890 5892 5892 5892 5894 5896 5897 5898 5901 5903 5905 5906 5909 5912 5915 5917 5918 5920 5920 5921 5922 5923 5924 5924 5924 5924 5925 5926
5895 5893 5890 5887 5885 5883 5881 5879 5879 5878 5878 5877 5878 5879 5880 5882 5884 5886 5886 5887 5888 5890 5892 5893 5896 5899 5901 5904 5906 5910 5912 5914 5916 5918 5919 5919 5920 5922 5923 5923 5923 5924 5924
5890 5888 5885 5883 5880 5877 5874 5871 5869 5870 5869 5867 5870 5868 5872 5873 5875 5877 5878 5880 5882 5882 5884 5886 5888 5891 5895 5898 5901 5903 5907 5910 5913 5914 5916 5917 5918 5919 5921 5922 5922 5922 5923
5882 5880 5878 5876 5872 5869 5866 5864 5861 5860 5860 5859 5860 5859 5861 5863 5862 5865 5868 5871 5873 5875 5877 5878 5880 5883 5886 5890 5893 5897 5901 5904 5907 5910 5912 5913 5915 5916 5918 5919 5919 5919 5920
5877 5873 5870 5867 5864 5861 5858 5855 5853 5851 5849 5850 5848 5849 5850 5853 5854 5856 5857 5861 5864 5866 5869 5871 5872 5874 5877 5880 5884 5888 5894 5897 5901 5905 5908 5910 5912 5913 5914 5916 5917 5917 5917
5870 5866 5863 5859 5855 5851 5848 5846 5843 5841 5839 5838 5838 5837 5838 5840 5842 5845 5847 5851 5853 5856 5859 5861 5862 5865 5868 5871 5875 5880 5885 5890 5893 5897 5901 5904 5907 5909 5910 5912 5913 5914 5915
5864 5859 5854 5850 5846 5842 5838 5835 5832 5830 5828 5828 5827 5827 5827 5828 5831 5831 5835 5838 5841 5846 5848 5851 5854 5857 5859 5862 5866 5871 5876 5880 5885 5889 5893 5897 5900 5903 5905 5907 5908 5910 5911
5852 5847 5842 5837 5833 5830 5828 5825 5822 5819 5818 5816 5816 5815 5815 5816 5818 5819 5822 5829 5830 5836 5838 5842 5846 5848 5851 5853 5856 5861 5865 5870 5876 5881 5885 5889 5893 5895 5899 5901 5903 5904 5905
5846 5840 5833 5828 5823 5819 5817 5815 5812 5810 5808 5805 5804 5803 5803 5804 5804 5807 5811 5815 5818 5823 5827 5832 5836 5839 5842 5844 5847 5851 5854 5861 5867 5872 5877 5881 5885 5888 5891 5893 5895 5897 5899
5839 5834 5828 5821 5816 5813 5809 5806 5803 5799 5795 5792 5791 5790 5790 5792 5792 5795 5797 5801 5807 5811 5817 5823 5827 5829 5832 5835 5839 5843 5846 5852 5857 5863 5868 5873 5876 5880 5883 5885 5888 5890 5892
5832 5826 5820 5814 5808 5803 5799 5795 5792 5787 5782 5779 5777 5776 5777 5778 5780 5782 5786 5789 5792 5797 5804 5811 5815 5819 5822 5826 5829 5833 5838 5843 5848 5854 5859 5864 5868 5871 5874 5877 5879 5881 5883
5823 5817 5811 5804 5799 5794 5789 5785 5780 5775 5770 5767 5765 5765 5765 5765 5767 5769 5773 5776 5780 5784 5791 5800 5802 5807 5811 5816 5819 5824 5829 5834 5839 5844 5849 5854 5858 5862 5866 5868 5870 5873 5874
5813 5807 5801 5795 5790 5786 5779 5773 5769 5764 5759 5756 5753 5751 5750 5750 5753 5756 5759 5764 5769 5773 5780 5787 5791 5794 5801 5806 5810 5816 5820 5825 5831 5835 5839 5844 5849 5853 5857 5860 5861 5863 5866
5802 5796 5790 5784 5779 5774 5769 5764 5758 5753 5748 5744 5740 5737 5736 5737 5739 5742 5745 5750 5756 5761 5768 5774 5780 5783 5789 5795 5801 5807 5813 5816 5820 5825 5830 5834 5839 5843 5848 5850 5852 5854 5855
5792 5785 5779 5773 5769 5763 5759 5755 5748 5743 5738 5733 5729 5724 5724 5724 5725 5727 5731 5737 5742 5748 5755 5761 5767 5772 5778 5785 5791 5797 5804 5807 5810 5814 5819 5825 5830 5833 5837 5841 5843 5844 5846
5782 5776 5769 5764 5759 5753 5749 5745 5739 5734 5728 5723 5717 5713 5711 5711 5712 5716 5720 5725 5730 5736 5743 5750 5756 5761 5768 5774 5781 5790 5794 5799 5801 5805 5810 5815 5820 5824 5828 5831 5834 5835 5837
5771 5765 5760 5754 5747 5741 5738 5735 5729 5725 5719 5714 5708 5702 5700 5701 5702 5704 5708 5713 5718 5724 5731 5737 5744 5751 5759 5764 5770 5776 5783 5788 5794 5798 5802 5807 5810 5814 5818 5822 5825 5827 5829
5760 5754 5748 5743 5737 5732 5730 5726 5720 5716 5711 5705 5699 5693 5691 5690 5691 5694 5698 5702 5708 5714 5720 5726 5733 5741 5747 5753 5760 5765 5771 5779 5787 5789 5793 5797 5800 5806 5809 5812 5816 5819 5821
5750 5744 5737 5732 5727 5723 5721 5718 5713 5709 5704 5697 5692 5686 5681 5681 5681 5683 5688 5692 5697 5703 5709 5715 5724 5731 5737 5743 5748 5754 5759 5766 5773 5774 5784 5789 5793 5797 5799 5803 5808 5810 5813
5739 5733 5728 5723 5718 5714 5712 5709 5706 5703 5697 5691 5685 5678 5673 5673 5673 5675 5678 5682 5686 5693 5699 5705 5712 5718 5724 5731 5736 5740 5746 5754 5762 5769 5774 5782 5785 5789 5792 5795 5799 5801 5805
5730 5724 5718 5714 5712 5709 5706 5703 5700 5696 5690 5685 5679 5674 5667 5664 5665 5665 5667 5672 5678 5684 5688 5695 5702 5709 5715 5721 5727 5731 5737 5743 5751 5757 5763 5771 5775 5778 5783 5786 5790 5794 5797
Wind_Speed
14 16 16 18 17 17 15 17 19 19 18 17 15 21 22 22 22 21 21 19 19 19 18 16 15 12 10 7 4 3 4 3 4 5 5 2 3 4 5 5 5 4 3
20 21 22 24 24 23 20 19 21 22 23 21 19 18 21 25 25 25 24 22 22 22 21 21 18 16 15 11 8 6 6 5 4 5 5 3 2 2 3 4 4 4 3
23 25 25 23 24 26 26 25 25 24 24 26 26 23 21 22 28 28 27 27 25 24 25 26 23 21 18 15 12 9 8 8 7 6 5 4 3 2 1 2 3 3 3
28 27 25 26 25 27 29 28 28 30 28 28 29 28 26 21 24 31 32 30 29 27 27 28 28 26 24 20 16 13 11 11 9 10 8 6 6 4 3 2 2 2 3
26 26 25 26 25 24 29 32 32 31 33 33 32 31 30 27 25 26 32 36 35 32 29 30 30 30 28 27 23 19 15 14 12 11 10 8 7 6 5 4 3 2 1
26 25 25 24 25 26 28 30 31 33 32 35 37 35 34 32 31 28 28 33 37 38 35 32 32 32 32 31 29 25 22 18 16 14 12 10 9 7 6 6 5 4 3
27 27 28 27 27 27 27 31 31 32 33 35 36 37 37 35 34 34 30 28 32 37 39 37 36 35 35 34 33 30 28 24 20 18 16 14 11 10 8 6 7 5 4
27 27 26 26 27 28 28 28 29 29 32 36 35 38 36 39 40 41 40 33 30 33 36 39 40 39 38 36 36 34 32 29 25 22 19 17 13 11 10 9 8 7 6
31 31 30 30 30 30 32 33 34 34 32 34 36 39 38 36 41 43 46 42 38 35 33 36 39 41 41 40 39 39 35 33 30 26 23 20 17 14 12 11 9 7 8
33 34 36 37 37 37 37 37 37 37 38 35 37 37 38 41 42 44 47 47 46 42 39 35 37 41 43 42 42 41 39 36 34 30 27 25 21 17 14 13 12 9 10
33 35 38 40 40 41 40 38 38 37 39 39 39 40 39 39 43 45 46 48 50 47 43 41 37 37 41 44 42 42 41 39 37 35 32 28 25 22 18 16 16 14 13
35 38 42 39 39 41 39 39 39 37 37 38 39 41 41 41 41 45 48 45 50 49 46 42 38 34 37 40 43 43 43 42 40 38 36 32 28 26 22 20 19 18 17
41 44 45 45 44 39 35 34 34 33 35 38 38 40 42 42 43 45 48 51 52 49 47 44 40 36 34 37 41 43 45 44 43 41 38 36 32 29 27 24 23 22 22
41 44 47 44 40 36 34 29 29 30 33 39 41 42 42 43 45 44 45 45 54 55 52 48 46 43 38 37 39 43 46 45 45 43 40 38 35 32 31 29 28 28 27
36 41 42 37 34 35 36 35 35 38 41 38 42 44 45 43 47 45 46 46 47 53 53 52 49 48 44 41 38 42 45 44 46 46 43 41 39 38 37 36 34 33 32
37 39 36 35 35 35 38 40 39 41 40 38 40 44 46 45 46 48 46 47 46 46 54 54 50 49 46 45 41 39 44 44 46 46 45 43 41 40 37 33 32 31 31
37 39 42 39 37 39 38 38 42 41 40 35 37 43 46 48 48 48 49 49 52 45 51 51 52 51 48 44 45 39 39 45 44 45 43 44 43 41 37 35 34 34 34
41 42 40 40 39 40 41 42 43 40 38 37 37 39 45 48 48 49 50 50 49 47 49 51 52 52 50 47 47 40 38 41 45 47 45 44 44 43 43 42 39 38 38
44 43 45 45 47 45 40 39 38 37 35 37 35 35 40 46 48 49 50 50 50 49 48 51 50 52 50 49 47 44 39 39 41 46 48 46 44 42 42 43 43 39 38
45 47 45 43 40 39 37 38 37 37 35 36 37 36 35 39 46 49 50 50 51 51 49 49 52 54 51 50 48 46 41 40 40 41 45 46 43 42 43 44 39 35 35
46 45 39 42 44 47 43 39 34 35 33 35 35 35 31 35 39 44 48 49 50 51 51 49 49 53 53 49 48 46 45 40 40 40 41 42 38 39 39 39 36 35 34
45 38 44 45 46 43 40 33 35 33 34 34 32 28 26 28 35 40 45 46 49 50 50 52 50 51 51 51 49 47 45 45 41 38 39 39 39 40 37 35 34 33 32
42 44 45 45 44 38 34 31 31 31 34 36 33 28 23 27 29 38 41 44 47 48 48 51 51 49 50 51 53 50 49 46 41 39 40 39 38 37 38 35 33 32 29
46 49 48 42 35 34 34 30 28 31 34 35 34 30 25 28 35 37 38 42 45 46 45 46 46 45 49 50 54 53 52 52 49 50 40 39 38 34 37 35 33 32 29
50 46 44 37 33 31 28 25 27 29 31 33 36 31 24 26 32 33 35 38 41 40 41 43 44 46 48 47 49 51 50 51 52 48 47 39 37 35 36 34 32 34 31
42 39 37 32 26 24 23 27 25 27 28 32 35 32 26 24 25 35 35 33 36 36 38 37 39 43 46 46 45 48 46 49 46 46 49 42 40 37 34 34 34 36 35
Wind_Direction
283 284 286 281 276 277 277 269 265 262 265 264 261 249 242 237 231 236 233 235 233 230 230 232 231 237 237 235 230 243 206 193 189 194 192 152 107 101 97 96 102 106 99
293 286 280 279 279 273 275 272 267 267 265 267 266 263 250 241 236 234 231 236 233 233 232 233 232 233 241 239 238 250 249 225 219 203 207 204 165 125 98 99 109 105 90
290 290 285 283 281 272 270 270 267 265 267 267 266 266 265 250 241 238 232 235 234 235 233 233 232 232 234 243 245 246 249 243 232 222 225 230 217 199 134 114 107 86 90
284 284 285 279 281 276 268 266 264 266 265 265 269 265 262 263 253 242 240 238 237 238 237 234 233 232 232 231 242 246 246 244 239 230 230 230 229 225 230 208 178 90 94
304 304 303 300 301 295 283 275 269 265 263 267 265 263 261 258 256 251 244 242 241 238 240 238 234 233 234 233 230 239 245 241 239 231 229 235 233 232 244 241 230 224 126
311 312 307 302 299 295 286 282 281 279 272 266 265 264 255 256 255 257 251 248 244 243 240 242 238 236 234 236 236 232 239 242 239 231 226 230 238 233 236 258 252 243 234
308 308 305 303 298 293 287 281 276 276 274 270 266 263 257 251 250 252 253 250 248 245 241 237 239 239 240 238 238 238 236 241 240 238 234 229 231 236 241 251 270 268 256
310 308 306 303 300 297 292 286 282 275 270 270 267 264 259 254 252 248 247 248 247 248 244 242 238 237 240 242 241 239 239 240 240 240 239 239 235 237 241 249 258 267 261
310 308 305 302 300 296 293 290 287 283 275 269 267 266 260 257 249 243 243 243 244 245 245 245 242 238 238 239 241 240 237 238 238 240 240 239 238 238 240 242 244 251 258
307 304 303 302 300 296 294 291 285 281 279 273 265 265 261 255 250 242 245 242 244 244 246 244 243 241 237 238 238 237 236 235 237 237 240 241 239 236 237 240 242 239 249
306 305 304 301 298 296 296 294 289 281 276 273 267 261 260 257 251 247 248 239 241 244 244 245 241 242 241 237 236 236 235 234 235 235 236 238 242 241 238 239 246 247 245
309 306 309 303 298 294 295 294 291 283 275 271 267 262 258 255 252 246 241 240 239 240 240 239 241 242 242 239 236 234 234 232 232 233 234 236 239 242 244 245 249 253 253
315 314 311 312 304 299 296 296 294 290 280 269 265 260 258 253 252 248 242 239 241 237 240 241 239 240 241 238 235 234 232 233 231 231 233 236 238 239 246 250 252 255 258
316 315 313 313 309 303 301 296 297 300 296 277 265 260 257 253 250 248 245 242 241 239 242 240 242 243 243 242 238 234 234 231 232 232 233 236 237 237 244 250 253 257 261
313 313 313 307 303 299 293 290 297 297 295 275 266 261 256 253 248 245 242 238 238 239 240 242 241 243 243 245 243 239 235 233 232 233 233 236 239 243 245 248 254 259 262
310 312 312 306 301 297 291 292 301 300 298 285 265 259 256 252 251 247 244 237 228 238 236 240 243 241 240 243 244 241 236 233 234 234 236 237 241 246 246 244 249 254 259
311 306 310 306 305 302 297 294 299 299 296 286 278 261 256 254 249 248 244 242 238 240 233 234 238 240 240 238 243 242 238 232 233 236 236 237 239 242 244 244 247 253 259
308 307 307 307 310 305 296 297 298 298 293 282 280 270 257 252 251 247 244 241 239 238 232 230 235 238 238 238 239 239 238 233 232 234 236 236 237 241 245 250 252 255 258
311 306 306 306 305 308 300 303 298 297 293 286 288 274 261 253 248 247 245 241 238 237 235 230 231 235 238 238 238 239 235 236 235 238 239 240 241 243 249 252 253 252 253
309 309 310 309 309 307 307 309 303 301 303 296 282 283 265 258 247 243 241 240 237 235 235 232 232 233 236 238 237 237 235 237 235 238 238 240 243 244 248 250 246 244 247
307 309 310 305 307 306 301 304 300 302 306 302 294 285 266 256 248 241 239 238 237 235 234 236 234 232 234 236 237 238 236 234 233 233 237 237 238 238 241 244 246 245 245
311 308 309 309 303 299 298 298 299 300 306 311 289 289 261 258 248 240 239 236 236 234 232 233 234 234 231 236 235 234 234 230 233 232 235 236 236 236 238 239 243 246 247
306 310 308 308 299 293 301 298 296 305 310 317 307 297 251 243 249 240 239 240 236 235 235 234 232 232 229 232 234 234 234 230 231 236 236 235 235 233 234 233 239 244 244
309 312 305 303 297 293 295 297 298 306 312 317 315 319 283 243 249 242 237 236 236 236 235 235 232 232 230 231 235 236 238 232 229 234 232 236 236 230 232 233 236 240 247
311 310 306 302 301 293 290 291 298 307 309 311 311 320 301 251 247 244 238 238 237 233 236 237 230 229 227 229 231 234 237 234 231 235 236 233 236 230 233 234 233 242 248
313 314 306 301 297 298 292 295 301 304 310 312 312 313 310 271 250 245 247 237 235 234 233 234 234 234 230 232 234 234 237 234 235 233 228 227 233 235 235 239 241 241 247